Waarnemingen

Advertentie
Mijn weer
Vinga, Zweden (2516): temperatuur & dauwpunt: 18.10.2017 00:00:00 - 24.10.2017 00:00:00 (CEST)Vinga, Zweden (2516): windsnelheid & windstoten: 18.10.2017 00:00:00 - 24.10.2017 00:00:00 (CEST)Vinga, Zweden (2516): windrichting: 18.10.2017 00:00:00 - 24.10.2017 00:00:00 (CEST)Vinga, Zweden (2516): luchtdruk: 18.10.2017 00:00:00 - 24.10.2017 00:00:00 (CEST)Vinga, Zweden (2516): zicht: 18.10.2017 00:00:00 - 24.10.2017 00:00:00 (CEST)Vinga, Zweden (2516): neerslag: 18.10.2017 00:00:00 - 24.10.2017 00:00:00 (CEST)
Datum & Tijd tt [°C] td [°C] ff [km/u] ff [kn] fx [km/u] fx [kn] dd ppp [hPa] vv [km] rr [mm]
24.10.2017 00:00:00 - - - - - - - - - -
23.10.2017 23:00:00 6,6 2,3 29 15 39 21 OZO 1023,8 50 0,0
23.10.2017 22:00:00 6,9 2,0 25 13 34 19 OZO 1023,3 50 0,0
23.10.2017 21:00:00 7,2 2,3 28 15 46 25 OZO 1023,0 50 0,0
23.10.2017 20:00:00 7,5 2,8 34 18 45 25 O 1022,1 50 0,0
23.10.2017 19:00:00 7,7 3,2 25 14 36 19 O 1022,5 50 0,0
23.10.2017 18:00:00 7,7 3,2 24 13 37 20 O 1021,9 50 0,0
23.10.2017 17:00:00 7,8 2,9 23 12 39 21 O 1021,1 50 0,0
23.10.2017 16:00:00 7,8 2,9 25 14 42 23 O 1020,2 50 0,0
23.10.2017 15:00:00 7,4 3,6 24 13 40 22 O 1019,6 13 0,0
23.10.2017 14:00:00 6,8 2,5 28 15 50 27 O 1019,1 50 0,0
23.10.2017 13:00:00 6,2 2,5 34 18 49 27 O 1018,4 50 0,0
23.10.2017 12:00:00 6,1 3,3 36 20 50 27 O 1017,9 50 0,0
23.10.2017 11:00:00 6,5 3,6 34 18 48 26 O 1017,3 50 0,0
23.10.2017 10:00:00 6,7 4,0 30 16 47 25 O 1016,6 50 0,0
23.10.2017 09:00:00 7,1 4,4 32 17 49 26 O 1015,7 50 0,0
23.10.2017 08:00:00 7,7 4,8 37 20 51 28 O 1014,7 50 0,0
23.10.2017 07:00:00 7,7 5,5 27 15 39 21 ONO 1013,9 50 0,0
23.10.2017 06:00:00 8,0 5,6 26 14 40 21 ONO 1013,3 50 0,0
23.10.2017 05:00:00 8,1 6,1 27 15 43 23 O 1012,7 50 0,0
23.10.2017 04:00:00 8,6 6,9 28 15 42 23 O 1012,0 50 0,0
23.10.2017 03:00:00 8,5 7,1 27 15 39 21 O 1011,6 50 0,0
23.10.2017 02:00:00 8,7 7,6 26 14 40 21 ONO 1011,1 50 0,0
23.10.2017 01:00:00 8,4 7,6 29 15 39 21 ONO 1010,8 11 0,4
23.10.2017 00:00:00 8,6 7,7 27 14 37 20 ONO 1010,9 7 0,8
22.10.2017 23:00:00 8,8 7,7 25 13 37 20 ONO 1010,6 20 0,3
22.10.2017 22:00:00 9,1 7,9 23 13 36 20 ONO 1010,2 23 0,1
22.10.2017 21:00:00 9,0 7,8 23 13 38 21 ONO 1010,0 50 0,4
22.10.2017 20:00:00 9,1 8,0 24 13 39 21 O 1010,0 18 0,6
22.10.2017 19:00:00 9,3 8,4 26 14 39 21 O 1009,5 13 1,4
22.10.2017 18:00:00 9,4 8,5 26 14 39 21 O 1009,3 11 1,4
22.10.2017 17:00:00 9,5 8,6 26 14 39 21 O 1009,0 11 1,9
22.10.2017 16:00:00 9,7 8,8 27 15 39 21 O 1008,9 12 1,4
22.10.2017 15:00:00 9,9 9,0 26 14 35 19 O 1009,0 11 1,2
22.10.2017 14:00:00 10,0 9,1 26 14 36 19 O 1009,3 8 0,4
22.10.2017 13:00:00 9,8 9,0 23 13 35 19 O 1009,6 8 0,6
22.10.2017 12:00:00 9,7 8,8 29 16 40 21 O 1009,7 16 0,1
22.10.2017 11:00:00 9,6 8,5 30 16 43 23 OZO 1009,8 28 0,2
22.10.2017 10:00:00 9,7 8,8 34 18 47 26 OZO 1009,9 11 0,6
22.10.2017 09:00:00 9,7 8,6 35 19 48 26 OZO 1009,8 10 0,7
22.10.2017 08:00:00 9,7 8,6 33 18 47 25 OZO 1009,8 16 0,6
22.10.2017 07:00:00 9,6 8,7 37 20 49 27 OZO 1009,9 7 1,6
22.10.2017 06:00:00 9,7 8,8 36 19 47 26 OZO 1010,2 4,6 1,2
22.10.2017 05:00:00 10,0 8,9 36 19 50 27 OZO 1010,4 9 0,7
22.10.2017 04:00:00 10,3 8,7 42 23 52 28 OZO 1010,6 8 0,0
22.10.2017 03:00:00 10,3 8,6 39 21 53 28 OZO 1010,9 21 0,0
22.10.2017 02:00:00 10,5 8,3 40 21 55 30 OZO 1011,5 43 0,0
22.10.2017 01:00:00 10,4 8,3 41 22 52 28 OZO 1011,9 43 0,0
22.10.2017 00:00:00 10,3 7,9 44 24 56 30 OZO 1012,2 47 0,1
21.10.2017 23:00:00 10,1 7,7 40 21 53 28 OZO 1012,7 35 0,0
21.10.2017 22:00:00 10,1 7,2 42 23 53 29 OZO 1012,7 50 0,0
21.10.2017 21:00:00 10,5 6,6 41 22 54 29 OZO 1012,7 30 0,0
21.10.2017 20:00:00 10,8 6,5 41 22 58 31 OZO 1013,1 50 0,0
21.10.2017 19:00:00 11,1 6,8 37 20 50 27 OZO 1013,6 50 0,0
21.10.2017 18:00:00 11,2 7,1 37 20 52 28 OZO 1013,7 50 0,0
21.10.2017 17:00:00 11,4 8,1 38 20 50 27 O 1013,7 44 0,0
21.10.2017 16:00:00 11,5 8,5 34 18 46 25 O 1014,0 50 0,0
21.10.2017 15:00:00 11,6 8,5 35 19 48 26 O 1014,0 44 0,0
21.10.2017 14:00:00 11,1 8,5 33 18 50 27 O 1014,4 47 0,0
21.10.2017 13:00:00 10,8 8,6 29 16 43 23 O 1014,6 45 0,0
21.10.2017 12:00:00 10,5 8,3 29 16 43 23 O 1015,2 50 0,0
21.10.2017 11:00:00 10,2 8,0 26 14 41 22 O 1015,2 44 0,0
21.10.2017 10:00:00 10,2 7,8 30 16 48 26 O 1014,8 50 0,0
21.10.2017 09:00:00 10,1 7,7 35 19 48 26 O 1014,6 50 0,0
21.10.2017 08:00:00 10,1 7,9 31 17 44 24 O 1014,4 50 0,0
21.10.2017 07:00:00 10,1 8,2 31 17 47 26 O 1014,3 50 0,0
21.10.2017 06:00:00 10,1 8,4 32 17 43 23 O 1014,0 50 0,0
21.10.2017 05:00:00 10,1 8,4 27 14 38 21 O 1014,2 50 0,0
21.10.2017 04:00:00 10,1 8,5 26 14 42 23 O 1014,2 50 0,0
21.10.2017 03:00:00 10,0 8,6 30 16 47 26 O 1014,0 22 0,3
21.10.2017 02:00:00 10,4 8,8 32 17 47 26 O 1013,6 28 0,0
21.10.2017 01:00:00 10,9 9,3 32 17 48 26 O 1013,4 50 0,0
21.10.2017 00:00:00 10,9 9,5 26 14 36 20 O 1014,1 30 0,0
20.10.2017 23:00:00 11,0 9,8 25 13 34 18 O 1014,3 37 0,1
20.10.2017 22:00:00 11,0 9,6 24 13 34 19 O 1014,3 14 0,4
20.10.2017 21:00:00 11,5 9,6 26 14 39 21 O 1014,3 13 0,1
20.10.2017 20:00:00 11,8 9,7 26 14 35 19 O 1014,3 31 0,0
20.10.2017 19:00:00 11,7 9,6 24 13 36 19 O 1014,2 27 0,0
20.10.2017 18:00:00 11,9 9,6 28 15 36 20 OZO 1013,9 34 0,0
20.10.2017 17:00:00 12,0 9,7 28 15 42 23 OZO 1014,1 29 0,0
20.10.2017 16:00:00 12,0 9,4 32 17 42 23 OZO 1013,5 27 0,0
20.10.2017 15:00:00 11,9 9,1 35 19 43 23 OZO 1013,9 47 0,0
20.10.2017 14:00:00 11,7 9,1 33 18 44 24 O 1013,8 41 0,0
20.10.2017 13:00:00 11,7 9,1 33 18 40 22 OZO 1013,9 49 0,0
20.10.2017 12:00:00 11,5 8,9 29 16 39 21 OZO 1014,3 42 0,0
20.10.2017 11:00:00 11,0 8,9 28 15 37 20 OZO 1014,6 50 0,0
20.10.2017 10:00:00 10,4 8,7 27 15 39 21 OZO 1014,6 47 0,0
20.10.2017 09:00:00 10,0 8,3 30 16 41 22 OZO 1014,5 50 0,0
20.10.2017 08:00:00 9,8 8,1 34 18 42 23 OZO 1014,5 50 0,0
20.10.2017 07:00:00 9,5 7,4 32 17 38 21 OZO 1014,9 50 0,0
20.10.2017 06:00:00 9,3 7,2 28 15 40 21 OZO 1015,0 50 0,0
20.10.2017 05:00:00 9,1 7,2 29 16 40 22 O 1015,2 33 0,0
20.10.2017 04:00:00 9,0 6,6 31 17 40 22 O 1015,7 46 0,1
20.10.2017 03:00:00 9,1 6,4 31 17 41 22 OZO 1016,5 49 0,1
20.10.2017 02:00:00 9,2 5,7 32 18 44 24 OZO 1016,6 50 0,1
20.10.2017 01:00:00 9,4 5,9 34 18 42 23 ZO 1016,8 49 0,0
20.10.2017 00:00:00 9,7 5,9 34 18 42 23 ZO 1016,6 21 0,0
19.10.2017 23:00:00 10,0 5,6 34 18 44 24 OZO 1017,0 47 0,0
19.10.2017 22:00:00 10,3 5,3 35 19 44 24 OZO 1017,0 50 0,0
19.10.2017 21:00:00 10,3 5,7 30 16 37 20 OZO 1017,2 50 0,0
19.10.2017 20:00:00 10,6 5,6 27 15 35 19 OZO 1017,3 50 0,0
19.10.2017 19:00:00 10,6 6,5 29 16 36 19 OZO 1017,5 50 0,0
19.10.2017 18:00:00 10,2 7,1 28 15 35 19 OZO 1017,6 50 0,0
19.10.2017 17:00:00 9,4 8,3 27 14 35 19 O 1017,9 7 0,2
19.10.2017 16:00:00 10,3 7,9 24 13 31 17 OZO 1018,0 10 0,0
19.10.2017 15:00:00 10,6 7,3 22 12 29 16 OZO 1018,1 50 0,0
19.10.2017 14:00:00 10,3 6,6 21 11 28 15 OZO 1018,3 50 0,0
19.10.2017 13:00:00 10,1 6,3 21 11 30 16 OZO 1018,3 50 0,0
19.10.2017 12:00:00 9,5 5,1 20 11 27 14 OZO 1018,5 50 0,0
19.10.2017 11:00:00 9,1 4,1 20 11 29 15 OZO 1018,6 50 0,0
19.10.2017 10:00:00 8,1 3,9 19 11 28 15 O 1018,5 50 0,0
19.10.2017 09:00:00 7,7 4,1 21 11 31 17 O 1018,3 50 0,0
19.10.2017 08:00:00 7,9 3,6 23 12 31 17 O 1017,9 50 0,0
19.10.2017 07:00:00 7,5 3,5 20 11 27 15 O 1017,7 50 0,0
19.10.2017 06:00:00 7,0 4,3 16 9 23 13 O 1017,9 50 0,0
19.10.2017 05:00:00 7,0 4,1 18 10 30 16 O 1017,7 50 0,0
19.10.2017 04:00:00 7,3 4,1 21 11 31 17 O 1017,9 50 0,0
19.10.2017 03:00:00 7,7 3,9 24 13 33 18 O 1018,0 50 0,0
19.10.2017 02:00:00 8,3 4,1 20 11 29 16 O 1018,2 50 0,0
19.10.2017 01:00:00 8,2 4,8 21 11 29 16 ONO 1018,0 50 0,0
19.10.2017 00:00:00 8,5 5,1 23 12 33 18 ONO 1017,8 50 0,0
18.10.2017 23:00:00 8,6 5,3 22 12 29 16 ONO 1017,7 50 0,0
18.10.2017 22:00:00 8,4 5,9 16 9 23 13 NO 1017,7 50 0,0
18.10.2017 21:00:00 8,4 5,5 17 9 23 12 NO 1017,3 50 0,0
18.10.2017 20:00:00 8,9 5,6 18 10 25 14 NO 1016,7 50 0,0
18.10.2017 19:00:00 9,7 4,9 17 9 32 17 NO 1016,4 50 0,0
18.10.2017 18:00:00 10,3 4,2 21 11 31 17 NO 1016,0 50 0,0
18.10.2017 17:00:00 11,0 4,2 23 13 34 19 NO 1015,4 50 0,0
18.10.2017 16:00:00 11,3 4,5 22 12 28 15 NO 1015,1 50 0,0
18.10.2017 15:00:00 11,1 5,6 18 10 36 19 ONO 1015,2 50 0,0
18.10.2017 14:00:00 10,8 6,2 25 14 33 18 NO 1014,6 50 0,0
18.10.2017 13:00:00 9,2 6,1 23 12 35 19 NO 1014,5 50 0,0
18.10.2017 12:00:00 9,6 6,9 23 13 35 19 NO 1014,0 50 0,0
18.10.2017 11:00:00 9,6 7,4 27 15 44 24 NO 1013,2 50 0,0
18.10.2017 10:00:00 9,8 8,6 35 19 44 24 NO 1012,2 50 0,0
18.10.2017 09:00:00 12,6 11,8 17 9 23 13 N 1010,7 15 0,0
18.10.2017 08:00:00 12,5 11,7 10 5 27 14 W 1009,8 16 0,0
18.10.2017 07:00:00 12,6 12,0 21 11 32 17 WNW 1009,3 21 0,4
18.10.2017 06:00:00 12,4 11,8 22 12 37 20 W 1008,8 2,9 0,0
18.10.2017 05:00:00 12,3 11,7 27 15 45 25 WZW 1008,1 9 0,0
18.10.2017 04:00:00 12,3 11,8 39 21 56 30 ZW 1007,7 4,8 0,3
18.10.2017 03:00:00 12,4 11,5 51 27 63 34 ZW 1007,3 7 0,0
18.10.2017 02:00:00 12,5 10,9 52 28 65 35 ZW 1006,9 6 0,0
18.10.2017 01:00:00 12,6 10,7 51 27 66 35 ZZW 1007,0 9 0,0
18.10.2017 00:00:00 12,2 10,8 50 27 62 34 ZZW 1007,4 9 0,0

tt = temperatuur
td = dauwpunt
ff = windsnelheid
fx = windstoten
dd = windrichting
ppp = luchtdruk
vv = zicht
rr = neerslag

Weerstations in de omgeving